Location: Newark
(31.5350°N, 35.0986°E)
Time: 06:55:51
(UTC+00:00)

Explorer 7 - Pass Details

Date: 19 October 2019
Orbit: 485 x 680 km, 50.3° (Epoch: 21 November)

Event Time Altitude Azimuth Distance (km) Brightness Sun altitude
Rises 09:57:37 0° 274° (W) 2,546 10.3 47.8°
Reaches altitude 10° 10:00:47 10° 303° (WNW) 1,662 9.2 47.6°
Maximum altitude 10:02:37 13° 332° (NNW) 1,479 8.8 47.5°
Drops below altitude 10° 10:04:28 10° 2° (N) 1,670 9.0 47.4°
Sets 10:07:40 0° 31° (NNE) 2,571 9.8 47.3°
